Mankato, MN

1:49 AM CST on November 17, 2019 (GMT -0600)
Mankato Regional

Weather History for KMKT - September, 2019

Change the Weather History Date:

Monday, September 16, 2019

  Actual Average Record
Temperature  
Mean Temperature 72 °F -  
Max Temperature 84 °F 69 °F 90 °F (2018)
Min Temperature 62 °F 50 °F 37 °F (2014)
Cooling Degree Days 7    
Growing Degree Days 22 (Base 50)    
Moisture  
Dew Point 69 °F    
Average Humidity 87    
Maximum Humidity 100    
Minimum Humidity 74    
Precipitation  
Precipitation 0.00 in - - ()
Sea Level Pressure  
Sea Level Pressure 30.00 in    
Wind  
Wind Speed 9 mph ()    
Max Wind Speed 15 mph    
Max Gust Speed 22 mph    
Visibility 10.0 miles    
Events      
Averages and records for this station are not official NWS values.
T = Trace of Precipitation, MM = Missing Value Source: Averaged Metar Reports

Daily Weather History Graph

Daily Weather History Graph

Search for Another Location

Airport or City:

Astronomy

Sep. 16, 2019 Rise Set
Actual Time 6:55 AM CDT 7:24 PM CDT
Civil Twilight 6:26 AM CDT 7:53 PM CDT
Nautical Twilight 5:52 AM CDT 8:27 PM CDT
Astronomical Twilight 5:16 AM CDT 9:03 PM CDT
Moon 8:55 PM CDT (9/16) 9:06 AM CDT (9/16)
Length of Visible Light 13h 27m
Length of Day
12h 28m
Waning Gibbous, 94% of the Moon is Illuminated
Sep 16
Waning Gibbous
Sep 21
Last Quarter
Sep 28
New
Oct 5
First Quarter
Oct 13
Full

Hourly Weather History & Observations

Time (CDT) Temp. Heat Index Dew Point Humidity Pressure Visibility Wind Dir Wind Speed Gust Speed Precip Events Conditions
12:56 AM 66.9 °F - 63.0 °F 87% 30.01 in 10.0 mi SSE 8.1 mph - N/A   Clear
1:56 AM 64.9 °F - 61.0 °F 87% 30.03 in 10.0 mi South 5.8 mph - N/A   Clear
2:56 AM 63.0 °F - 61.0 °F 93% 30.03 in 10.0 mi SE 6.9 mph - N/A   Clear
3:56 AM 63.0 °F - 61.0 °F 93% 30.03 in 10.0 mi SSE 9.2 mph - N/A   Clear
4:56 AM 63.0 °F - 61.0 °F 93% 30.04 in 10.0 mi SSE 6.9 mph - N/A   Clear
5:56 AM 62.1 °F - 61.0 °F 96% 30.04 in 10.0 mi SSE 8.1 mph - N/A   Clear
6:56 AM 62.1 °F - 62.1 °F 100% 30.04 in 10.0 mi SSE 6.9 mph - N/A   Clear
7:56 AM 64.9 °F - 64.0 °F 97% 30.04 in 10.0 mi SE 10.4 mph - N/A   Clear
8:56 AM 69.1 °F - 66.9 °F 93% 30.04 in 10.0 mi SSE 11.5 mph - N/A   Clear
9:56 AM 73.9 °F - 68.0 °F 82% 30.04 in 10.0 mi SSE 11.5 mph - N/A   Clear
10:56 AM 77.0 °F - 70.0 °F 79% 30.02 in 10.0 mi SSE 15.0 mph - N/A   Clear
11:56 AM 80.1 °F 83.8 °F 72.0 °F 76% 30.02 in 10.0 mi SSE 13.8 mph - N/A   Clear
12:56 PM 81.0 °F 85.8 °F 73.0 °F 77% 30.00 in 10.0 mi South 15.0 mph 21.9 mph N/A   Clear
1:56 PM 82.0 °F 87.4 °F 73.0 °F 74% 29.99 in 10.0 mi SSE 11.5 mph 20.7 mph N/A   Clear
2:56 PM 82.9 °F 89.4 °F 73.9 °F 74% 29.97 in 10.0 mi SSE 13.8 mph 20.7 mph N/A   Clear
3:56 PM 81.0 °F 86.2 °F 73.9 °F 79% 29.97 in 10.0 mi SSE 15.0 mph - N/A   Clear
4:56 PM 81.0 °F 86.7 °F 75.0 °F 82% 29.96 in 10.0 mi SSE 9.2 mph - N/A   Clear
5:56 PM 81.0 °F 86.2 °F 73.9 °F 79% 29.97 in 10.0 mi SSE 12.7 mph 19.6 mph N/A   Clear
6:56 PM 80.1 °F 84.5 °F 73.9 °F 81% 29.97 in 10.0 mi SSE 13.8 mph - N/A   Clear
7:56 PM 79.0 °F - 73.9 °F 84% 29.97 in 10.0 mi SSE 11.5 mph 18.4 mph N/A   Clear
8:56 PM 78.1 °F - 75.0 °F 90% 29.97 in 10.0 mi SSE 13.8 mph 19.6 mph N/A   Clear
9:56 PM 77.0 °F - 75.0 °F 94% 29.98 in 10.0 mi SSE 11.5 mph - N/A   Clear
10:56 PM 75.9 °F - 73.9 °F 94% 29.98 in 10.0 mi SSE 12.7 mph - N/A   Clear
11:56 PM 75.0 °F - 73.9 °F 96% 29.97 in 10.0 mi SSE 12.7 mph - N/A   Clear